• în Republica Moldova
  • Lista ţărilor
  • Pe 7 zile
  • Temperatura apei
  • Hartă satelitară
  • Meteo pe hartă
  • Widget-uri
  • user-avatar
    Intrare

    Meteo pe oră la Barinas

    Astăzi, 25 Iunie, Marţi

    Timp Temperatura Precipitaţii Vânt Presiune Umiditate
    00:00 +25°C° 1 mm 1 m/s 744 mmHg 93%
    01:00 +25°C° 0 mm 1 m/s 743 mmHg 95%
    02:00 +25°C° 0.7 mm 1 m/s 743 mmHg 95%
    03:00 +24°C° 0.7 mm 1 m/s 743 mmHg 94%
    04:00 +24°C° 0.7 mm 1 m/s 743 mmHg 94%
    05:00 +25°C° 0.9 mm 1 m/s 744 mmHg 93%
    06:00 +25°C° 0.9 mm 1 m/s 744 mmHg 93%
    07:00 +25°C° 0.9 mm 1 m/s 745 mmHg 92%
    08:00 +26°C° 0.8 mm 1 m/s 745 mmHg 92%
    09:00 +26°C° 0.8 mm 1 m/s 745 mmHg 91%
    10:00 +25°C° 0.8 mm 0 m/s 745 mmHg 91%
    11:00 +26°C° 1.7 mm 0 m/s 745 mmHg 86%
    12:00 +27°C° 1.7 mm 0 m/s 745 mmHg 82%
    13:00 +28°C° 1.7 mm 0 m/s 745 mmHg 77%
    14:00 +28°C° 0.3 mm 0 m/s 744 mmHg 75%
    15:00 +28°C° 0.3 mm 0 m/s 743 mmHg 73%
    16:00 +30°C° 0.3 mm 1 m/s 743 mmHg 71%
    17:00 +29°C° 0.4 mm 1 m/s 743 mmHg 77%
    18:00 +25°C° 0.4 mm 0 m/s 743 mmHg 83%
    19:00 +24°C° 0.4 mm 0 m/s 744 mmHg 89%
    20:00 +26°C° 0 mm 1 m/s 744 mmHg 88%
    21:00 +25°C° 0 mm 1 m/s 744 mmHg 88%
    22:00 +25°C° 0 mm 1 m/s 744 mmHg 87%
    23:00 +25°C° 0 mm 1 m/s 744 mmHg 85%

    Mâine, 26 Iunie, Miercuri

    Timp Temperatura Precipitaţii Vânt Presiune Umiditate
    00:00 +25°C° 0 mm 1 m/s 744 mmHg 84%
    01:00 +25°C° 0 mm 1 m/s 744 mmHg 82%
    02:00 +25°C° 0 mm 1 m/s 744 mmHg 81%
    03:00 +25°C° 0 mm 1 m/s 744 mmHg 80%
    04:00 +25°C° 0 mm 1 m/s 744 mmHg 78%
    05:00 +25°C° 0.3 mm 1 m/s 744 mmHg 79%
    06:00 +26°C° 0.3 mm 1 m/s 744 mmHg 80%
    07:00 +24°C° 0.3 mm 0 m/s 745 mmHg 81%
    08:00 +28°C° 0.1 mm 1 m/s 745 mmHg 76%
    09:00 +29°C° 0.1 mm 2 m/s 745 mmHg 71%
    10:00 +31°C° 0.1 mm 2 m/s 745 mmHg 67%
    11:00 +32°C° 0 mm 2 m/s 745 mmHg 66%
    12:00 +33°C° 0 mm 3 m/s 744 mmHg 65%
    13:00 +34°C° 0 mm 3 m/s 744 mmHg 64%
    14:00 +33°C° 0 mm 3 m/s 743 mmHg 67%
    15:00 +33°C° 0 mm 3 m/s 742 mmHg 69%
    16:00 +33°C° 0 mm 3 m/s 742 mmHg 72%
    17:00 +30°C° 0 mm 2 m/s 742 mmHg 79%
    18:00 +28°C° 0 mm 2 m/s 742 mmHg 85%
    19:00 +27°C° 0 mm 2 m/s 742 mmHg 91%
    20:00 +26°C° 0 mm 2 m/s 743 mmHg 89%
    21:00 +25°C° 0 mm 2 m/s 743 mmHg 87%
    22:00 +25°C° 0 mm 2 m/s 744 mmHg 85%
    23:00 +25°C° 0 mm 2 m/s 744 mmHg 80%

    Poimâine, 27 Iunie, Joi

    Timp Temperatura Precipitaţii Vânt Presiune Umiditate
    00:00 +24°C° 0 mm 2 m/s 744 mmHg 76%
    01:00 +24°C° 0 mm 1 m/s 743 mmHg 71%
    02:00 +24°C° 0 mm 1 m/s 743 mmHg 68%
    03:00 +23°C° 0 mm 1 m/s 743 mmHg 65%
    04:00 +23°C° 0 mm 1 m/s 743 mmHg 63%
    05:00 +24°C° 0 mm 1 m/s 743 mmHg 64%
    06:00 +25°C° 0 mm 1 m/s 744 mmHg 66%
    07:00 +26°C° 0 mm 1 m/s 744 mmHg 67%
    08:00 +27°C° 0.1 mm 2 m/s 744 mmHg 67%
    09:00 +29°C° 0.1 mm 2 m/s 744 mmHg 66%
    10:00 +31°C° 0.1 mm 3 m/s 745 mmHg 66%
    11:00 +31°C° 0.1 mm 3 m/s 744 mmHg 64%
    12:00 +33°C° 0.1 mm 3 m/s 743 mmHg 62%
    13:00 +33°C° 0.1 mm 4 m/s 743 mmHg 61%
    14:00 +33°C° 0 mm 3 m/s 742 mmHg 63%
    15:00 +31°C° 0 mm 3 m/s 742 mmHg 66%
    16:00 +31°C° 0 mm 3 m/s 741 mmHg 68%
    17:00 +29°C° 0 mm 2 m/s 741 mmHg 75%
    18:00 +27°C° 0 mm 2 m/s 742 mmHg 81%
    19:00 +26°C° 0 mm 2 m/s 742 mmHg 88%
    20:00 +25°C° 0 mm 1 m/s 743 mmHg 87%
    21:00 +25°C° 0 mm 1 m/s 743 mmHg 87%
    22:00 +24°C° 0 mm 1 m/s 744 mmHg 87%
    23:00 +24°C° 0 mm 1 m/s 744 mmHg 83%

    28 Iunie, Vineri

    Timp Temperatura Precipitaţii Vânt Presiune Umiditate
    00:00 +24°C° 0 mm 1 m/s 744 mmHg 79%
    01:00 +23°C° 0 mm 2 m/s 743 mmHg 74%
    02:00 +23°C° 0 mm 2 m/s 743 mmHg 69%
    03:00 +23°C° 0 mm 2 m/s 743 mmHg 63%
    04:00 +23°C° 0 mm 2 m/s 743 mmHg 58%
    05:00 +24°C° 0 mm 2 m/s 743 mmHg 61%
    06:00 +25°C° 0 mm 1 m/s 744 mmHg 65%
    07:00 +26°C° 0 mm 1 m/s 745 mmHg 68%
    08:00 +27°C° 0 mm 1 m/s 745 mmHg 69%
    09:00 +28°C° 0 mm 2 m/s 745 mmHg 71%
    10:00 +29°C° 0 mm 2 m/s 745 mmHg 72%
    11:00 +30°C° 0.4 mm 2 m/s 744 mmHg 70%
    12:00 +31°C° 0.4 mm 2 m/s 744 mmHg 68%
    13:00 +33°C° 0.4 mm 3 m/s 743 mmHg 65%
    14:00 +31°C° 0.4 mm 3 m/s 742 mmHg 67%
    15:00 +31°C° 0.4 mm 3 m/s 742 mmHg 70%
    16:00 +31°C° 0.4 mm 3 m/s 741 mmHg 72%
    17:00 +29°C° 0.4 mm 2 m/s 742 mmHg 78%
    18:00 +28°C° 0.4 mm 2 m/s 742 mmHg 84%
    19:00 +26°C° 0.4 mm 1 m/s 743 mmHg 90%
    20:00 +26°C° 0.3 mm 1 m/s 743 mmHg 91%
    21:00 +26°C° 0.3 mm 1 m/s 744 mmHg 91%
    22:00 +25°C° 0.3 mm 1 m/s 744 mmHg 92%
    23:00 +25°C° 2.3 mm 1 m/s 744 mmHg 93%

    29 Iunie, Sâmbătă

    Timp Temperatura Precipitaţii Vânt Presiune Umiditate
    00:00 +24°C° 2.3 mm 2 m/s 744 mmHg 94%
    01:00 +24°C° 2.3 mm 2 m/s 743 mmHg 95%
    02:00 +24°C° 2.5 mm 2 m/s 743 mmHg 95%
    03:00 +24°C° 2.5 mm 2 m/s 743 mmHg 95%
    04:00 +24°C° 2.5 mm 2 m/s 743 mmHg 95%
    05:00 +24°C° 1 mm 2 m/s 744 mmHg 95%
    06:00 +24°C° 1 mm 2 m/s 744 mmHg 94%
    07:00 +24°C° 1 mm 2 m/s 745 mmHg 94%
    08:00 +25°C° 0.1 mm 2 m/s 745 mmHg 91%
    09:00 +26°C° 0.1 mm 2 m/s 746 mmHg 88%
    10:00 +27°C° 0.1 mm 2 m/s 746 mmHg 85%
    11:00 +28°C° 0 mm 2 m/s 745 mmHg 80%
    12:00 +28°C° 0 mm 2 m/s 745 mmHg 76%
    13:00 +29°C° 0 mm 2 m/s 744 mmHg 72%
    14:00 +29°C° 0 mm 2 m/s 743 mmHg 69%
    15:00 +30°C° 0 mm 1 m/s 742 mmHg 67%
    16:00 +30°C° 0 mm 1 m/s 742 mmHg 65%
    17:00 +30°C° 0 mm 1 m/s 742 mmHg 66%
    18:00 +29°C° 0 mm 1 m/s 743 mmHg 67%
    19:00 +28°C° 0 mm 1 m/s 743 mmHg 68%
    20:00 +27°C° 0 mm 1 m/s 744 mmHg 67%
    21:00 +27°C° 0 mm 1 m/s 744 mmHg 67%
    22:00 +27°C° 0 mm 1 m/s 745 mmHg 66%
    23:00 +26°C° 0.1 mm 1 m/s 744 mmHg 68%

    30 Iunie, Duminică

    Timp Temperatura Precipitaţii Vânt Presiune Umiditate
    00:00 +26°C° 0.1 mm 1 m/s 744 mmHg 71%
    01:00 +25°C° 0.1 mm 1 m/s 744 mmHg 74%
    02:00 +25°C° 0.1 mm 1 m/s 744 mmHg 74%
    03:00 +25°C° 0.1 mm 1 m/s 743 mmHg 75%
    04:00 +25°C° 0.1 mm 1 m/s 743 mmHg 76%
    05:00 +25°C° 0.4 mm 1 m/s 744 mmHg 79%
    06:00 +25°C° 0.4 mm 1 m/s 744 mmHg 83%
    07:00 +25°C° 0.4 mm 1 m/s 745 mmHg 87%
    08:00 +27°C° 0.4 mm 1 m/s 745 mmHg 81%
    09:00 +28°C° 0.4 mm 1 m/s 745 mmHg 76%
    10:00 +30°C° 0.4 mm 1 m/s 745 mmHg 71%
    11:00 +31°C° 0.1 mm 2 m/s 745 mmHg 68%
    12:00 +31°C° 0.1 mm 2 m/s 744 mmHg 66%
    13:00 +33°C° 0.1 mm 3 m/s 743 mmHg 64%
    14:00 +33°C° 0 mm 3 m/s 743 mmHg 66%
    15:00 +33°C° 0 mm 3 m/s 742 mmHg 68%
    16:00 +31°C° 0 mm 3 m/s 742 mmHg 71%
    17:00 +30°C° 0.1 mm 2 m/s 742 mmHg 76%
    18:00 +28°C° 0.1 mm 2 m/s 742 mmHg 81%
    19:00 +27°C° 0.1 mm 1 m/s 743 mmHg 86%
    20:00 +26°C° 0 mm 1 m/s 743 mmHg 85%
    21:00 +26°C° 0 mm 1 m/s 744 mmHg 83%
    22:00 +26°C° 0 mm 1 m/s 744 mmHg 81%
    23:00 +26°C° 0.4 mm 1 m/s 744 mmHg 82%
    Arată mai mult